Weather History for Goteborg Save AFB, Sweden

Change the Weather History Date:

Thursday, April 11, 2013

  Actual Average Record
Temperature  
Mean Temperature 38 °F -  
Max Temperature 44 °F 53 °F - ()
Min Temperature 33 °F 37 °F - ()
Degree Days  
Heating Degree Days 26    
Moisture  
Dew Point 27 °F    
Average Humidity 63    
Maximum Humidity 87    
Minimum Humidity 48    
Precipitation  
Precipitation 0.00 in 0.06 in - ()
Sea Level Pressure  
Sea Level Pressure 29.74 in    
Wind  
Wind Speed 10 mph ()    
Max Wind Speed 17 mph    
Max Gust Speed -    
Visibility 6.1 miles    
Events Rain , Snow    
T = Trace of Precipitation, MM = Missing Value Source: Averaged Metar Reports

Daily Weather History Graph

Daily Weather History Graph

Search for Another Location

Airport:

Trip Planner

Search our weather history database for the weather conditions in past years. The results will help you decide how hot, cold, wet, or windy it might be!

Date:

Astronomy

Apr. 11, 2013 Rise Set
Actual Time 6:13 AM CEST 8:15 PM CEST
Civil Twilight 5:31 AM CEST 8:57 PM CEST
Nautical Twilight 4:38 AM CEST 9:50 PM CEST
Astronomical Twilight 3:34 AM CEST 10:56 PM CEST
Moon 6:19 AM CEST (4/11) 9:55 PM CEST (4/11)
Length of Visible Light 15h 25m
Length of Day
14h 02m
New Moon, 1% of the Moon is Illuminated
Apr 11
New Moon
Apr 18
First Quarter
Apr 25
Full
May 2
Last Quarter
May 10
New

Hourly Weather History & Observations

Time (CEST) Temp. Windchill Dew Point Humidity Pressure Visibility Wind Dir Wind Speed Gust Speed Precip Events Conditions
12:51 AM 37.4 °F 29.8 °F 19.4 °F 48% 29.86 in - ESE 11.5 mph - N/A   Clear
1:20 AM 35.6 °F 27.5 °F 19.4 °F 52% 29.86 in - ESE 11.5 mph - N/A   Clear
3:20 AM 33.8 °F 24.8 °F 21.2 °F 60% 29.83 in - East 12.7 mph - N/A   Clear
3:50 AM 33.8 °F 25.3 °F 19.4 °F 56% 29.83 in - East 11.5 mph - N/A   Clear
4:20 AM 33.8 °F 24.8 °F 19.4 °F 56% 29.83 in - East 12.7 mph - N/A   Clear
5:20 AM 33.8 °F 25.8 °F 19.4 °F 56% 29.80 in - East 10.4 mph - N/A   Clear
5:50 AM 33.8 °F 25.3 °F 19.4 °F 56% 29.80 in - East 11.5 mph - N/A   Clear
6:20 AM 33.8 °F 25.3 °F 19.4 °F 56% 29.80 in - East 11.5 mph - N/A   Clear
6:50 AM 33.8 °F 25.3 °F 19.4 °F 56% 29.77 in - East 11.5 mph - N/A   Clear
7:20 AM 33.8 °F 25.8 °F 19.4 °F 56% 29.77 in - East 10.4 mph - N/A   Clear
7:50 AM 35.6 °F 27.1 °F 19.4 °F 52% 29.77 in - East 12.7 mph - N/A   Clear
8:20 AM 35.6 °F 26.6 °F 21.2 °F 56% 29.77 in 6.2 mi East 13.8 mph - N/A   Overcast
8:50 AM 37.4 °F 28.9 °F 23.0 °F 56% 29.77 in - East 13.8 mph - N/A   Clear
9:50 AM 39.2 °F 31.6 °F 24.8 °F 56% 29.77 in 6.2 mi ESE 12.7 mph - N/A   Overcast
10:20 AM 39.2 °F 31.6 °F 24.8 °F 56% 29.77 in 4.3 mi ESE 12.7 mph - N/A   Unknown
10:50 AM 37.4 °F 29.8 °F 26.6 °F 65% 29.77 in 6.2 mi ESE 11.5 mph - N/A Snow Light Snow
11:20 AM 39.2 °F 32.0 °F 24.8 °F 56% 29.74 in 6.2 mi East 11.5 mph - N/A   Mostly Cloudy
12:20 PM 42.8 °F 36.2 °F 26.6 °F 53% 29.74 in 6.2 mi East 12.7 mph - N/A   Overcast
12:50 PM 44.6 °F 38.1 °F 28.4 °F 53% 29.74 in 6.2 mi ESE 13.8 mph - N/A   Overcast
1:20 PM 42.8 °F 34.8 °F 28.4 °F 57% 29.74 in 6.2 mi SE 17.3 mph - N/A Rain Light Rain
1:50 PM 42.8 °F 37.0 °F 28.4 °F 57% 29.74 in 6.2 mi SE 10.4 mph - N/A   Light Drizzle
2:20 PM 41.0 °F 33.9 °F 30.2 °F 65% 29.74 in 6.2 mi SE 12.7 mph - N/A   Light Drizzle
2:50 PM 41.0 °F 36.4 °F 33.8 °F 76% 29.74 in 5.0 mi SE 6.9 mph - N/A Rain Light Rain
3:20 PM 39.2 °F 32.5 °F 33.8 °F 81% 29.71 in 6.2 mi ESE 10.4 mph - N/A   Light Drizzle
3:50 PM 39.2 °F 33.6 °F 33.8 °F 81% 29.71 in 6.2 mi East 8.1 mph - N/A   Light Drizzle
4:20 PM 41.0 °F 35.2 °F 33.8 °F 76% 29.71 in 6.2 mi East 9.2 mph - N/A   Overcast
4:50 PM 41.0 °F 37.1 °F 32.0 °F 70% 29.68 in 5.6 mi East 5.8 mph - N/A   Light Drizzle
5:20 PM 41.0 °F 35.2 °F 30.2 °F 65% 29.68 in 6.2 mi East 9.2 mph - N/A   Light Drizzle
5:50 PM 41.0 °F 34.7 °F 30.2 °F 65% 29.68 in 6.2 mi East 10.4 mph - N/A   Light Drizzle
6:20 PM 42.8 °F 37.0 °F 30.2 °F 61% 29.68 in 6.2 mi East 10.4 mph - N/A   Overcast
6:50 PM 42.8 °F 37.0 °F 30.2 °F 61% 29.68 in 6.2 mi East 10.4 mph - N/A   Overcast
7:20 PM 42.8 °F 38.0 °F 30.2 °F 61% 29.68 in 6.2 mi East 8.1 mph - N/A   Overcast
7:50 PM 41.0 °F 35.8 °F 30.2 °F 65% 29.68 in 6.2 mi East 8.1 mph - N/A   Overcast
8:20 PM 41.0 °F 35.2 °F 30.2 °F 65% 29.68 in 6.2 mi East 9.2 mph - N/A   Mostly Cloudy
8:50 PM 41.0 °F 37.1 °F 30.2 °F 65% 29.68 in 6.2 mi East 5.8 mph - N/A   Overcast
9:20 PM 41.0 °F 34.7 °F 30.2 °F 65% 29.68 in 6.2 mi ESE 10.4 mph - N/A   Light Drizzle
9:50 PM 39.2 °F 32.5 °F 32.0 °F 75% 29.68 in 6.2 mi ESE 10.4 mph - N/A   Light Drizzle
10:20 PM 39.2 °F 33.0 °F 32.0 °F 75% 29.68 in 6.2 mi East 9.2 mph - N/A   Light Drizzle
10:50 PM 37.4 °F 32.1 °F 32.0 °F 81% 29.68 in 6.2 mi ENE 6.9 mph - N/A   Light Drizzle
11:20 PM 37.4 °F 32.1 °F 33.8 °F 87% 29.68 in 6.2 mi ENE 6.9 mph - N/A   Overcast
11:50 PM 37.4 °F 32.1 °F 32.0 °F 81% 29.65 in 6.2 mi ENE 6.9 mph - N/A   Light Drizzle